Hourly Data Report for June 20, 2018

LONDON CS
ONTARIO
Current Station Operator: ECCC - MSC

43°02'00.000" N
81°09'00.000" W
278.00 m
6144478
71622
WSN

Download Data

Hourly Data (June 2018)
Hourly Data Report for June 20, 2018
TIME Temp Definition
°C
Dew Point Definition
°C
Rel Hum Definition
%
Wind Dir Definition
10's deg

Wind Spd Definition
km/h
Visibility Definition
km
Stn Press Definition
kPa
Hmdx Definition


Wind Chill Definition


Weather Definition


00:00 18.2 15.6 85 LegendMM LegendMM   98.15     LegendNANA
01:00 17.7 15.8 89 LegendMM LegendMM   98.13     LegendNANA
02:00 18.2 15.8 86 LegendMM LegendMM   98.09     LegendNANA
03:00 17.9 16.0 89 LegendMM LegendMM   98.03     LegendNANA
04:00 18.2 16.1 88 LegendMM LegendMM   98.06     LegendNANA
05:00 17.2 13.6 80 LegendMM LegendMM   98.12     LegendNANA
06:00 17.5 15.0 85 LegendMM LegendMM   98.12     LegendNANA
07:00 16.8 14.4 86 LegendMM LegendMM   98.10     LegendNANA
08:00 17.3 14.8 86 LegendMM LegendMM   98.09     LegendNANA
09:00 17.6 14.0 80 LegendMM LegendMM   98.01     LegendNANA
10:00 18.3 14.2 77 LegendMM LegendMM   97.99     LegendNANA
11:00 18.2 14.5 79 LegendMM LegendMM   98.02     LegendNANA
12:00 18.4 14.2 77 LegendMM LegendMM   98.02     LegendNANA
13:00 19.4 14.2 72 LegendMM LegendMM   97.99     LegendNANA
14:00 19.5 13.2 67 LegendMM LegendMM   97.96     LegendNANA
15:00 20.2 13.4 65 LegendMM LegendMM   97.91     LegendNANA
16:00 21.3 13.9 63 LegendMM LegendMM   97.87 25   LegendNANA
17:00 21.9 13.8 60 LegendMM LegendMM   97.82 25   LegendNANA
18:00 22.0 12.0 53 LegendMM LegendMM   97.78     LegendNANA
19:00 20.4 10.7 54 LegendMM LegendMM   97.78     LegendNANA
20:00 17.9 10.4 61 LegendMM LegendMM   97.78     LegendNANA
21:00 16.7 9.7 63 LegendMM LegendMM   97.85     LegendNANA
22:00 15.5 10.8 73 LegendMM LegendMM   97.93     LegendNANA
23:00 14.8 11.2 79 LegendMM LegendMM   97.90     LegendNANA

Notes on Data Quality.

Legend

  • E = Estimated
  • M = Missing
  • NA = Not Available*
  • [empty] = Indicates an unobserved value
Date modified: